Regional Weather Roundup
Issued by NWS Little Rock, AR

Home | Current Version | Previous Version | Text Only | Print | Product List | Glossary On
Versions: 1 2 3 4 5 6 7 8 9 10 11 12 13 14 15 16 17 18 19 20 21 22 23 24 25 26 27 28 29 30 31 32
000
ASUS44 KLZK 281905
RWRLZK

WEATHER ROUNDUP FOR ARKANSAS
NATIONAL WEATHER SERVICE LITTLE ROCK AR
200 PM CDT WED SEP 28 2016

NOTE: "FAIR" INDICATES FEW OR NO CLOUDS BELOW 12,000 FEET WITH NO
SIGNIFICANT WEATHER AND/OR OBSTRUCTIONS TO VISIBILITY.

ARZ001-003-010-029-282000-
NORTHWEST ARKANSAS

CITY           SKY/WX    TMP DP  RH WIND       PRES   REMARKS
FAYETTEVILLE   SUNNY     78  55  44 N13G22    30.02R
FORT SMITH     SUNNY     86  52  30 W13       29.96F
HARRISON       SUNNY     78  50  37 NW12G22   29.99S
BENTONVILLE    SUNNY     77  48  36 N10G18    30.04R
ROGERS         SUNNY     76  52  43 N10       30.04R
SILOAM SPGS    SUNNY     79  48  34 N14G23    30.03S
HIGHFILL       SUNNY     79  52  38 N16       30.03R
SPRINGDALE     SUNNY     79  52  38 NW12      30.04R
$$

ARZ004-005-016-282000-
NORTH CENTRAL ARKANSAS

CITY           SKY/WX    TMP DP  RH WIND       PRES   REMARKS
BATESVILLE     SUNNY     84  55  37 NW10G21   29.91S
FLIPPIN        SUNNY     82  48  30 N10G20    29.93F
MTN HOME       SUNNY     80  50  34 N8        29.95S
$$

ARZ040-041-282000-
WEST CENTRAL ARKANSAS

CITY           SKY/WX    TMP DP  RH WIND       PRES   REMARKS
MENA           SUNNY    N/A N/A N/A W10       29.98F
MOUNT IDA      SUNNY     88  51  28 MISG      29.94F HX  85
$$

ARZ009-017-025-026-028-282000-
NORTHEAST ARKANSAS

CITY           SKY/WX    TMP DP  RH WIND       PRES   REMARKS
CORNING          N/A     81  55  41 NW14G22   29.90F
JONESBORO      SUNNY     85  53  33 NW10      29.88S
NEWPORT        SUNNY     85  56  37 N10G17    29.88F
WALNUT RIDGE   SUNNY     82  55  39 NW12G18   29.89S
BLYTHEVILLE    CLOUDY    85  55  35 NW9G21    29.87F
NW BLYTHEVILLE MOSUNNY   82  54  36 W13G23    29.87F
$$

ARZ022-023-033-042-044-282000-
CENTRAL ARKANSAS

CITY           SKY/WX    TMP DP  RH WIND       PRES   REMARKS
LITTLE ROCK    SUNNY     89  56  32 SW13      29.91F HX  87
N LITTLE ROCK    N/A     87  56  33 W7        29.89F HX  86
JACKSONVILLE   SUNNY     89  53  29 NW10      29.90F HX  86
SEARCY         SUNNY     84  56  38 W9        29.92F
HOT SPRINGS    SUNNY     89  55  31 SW10      29.94F HX  87
RUSSELLVILLE   SUNNY     84  54  35 NW10      29.94S
$$

ARZ036-282000-
EAST ARKANSAS

CITY           SKY/WX    TMP DP  RH WIND       PRES   REMARKS
WEST MEMPHIS   SUNNY     87  47  24 SW13G26   29.86F
$$

ARZ050-053-066-070-073-282000-
SOUTHWEST ARKANSAS

CITY           SKY/WX    TMP DP  RH WIND       PRES   REMARKS
ARKADELPHIA    FAIR      85  61  44 SW9       29.95F HX  85
TEXARKANA      SUNNY     87  50  27 SW9       29.99F
EL DORADO      SUNNY     83  55  38 SW7       30.00F
DE QUEEN       SUNNY     85  58  39 W12       29.96F
$$

ARZ056-057-069-282000-
SOUTHEAST ARKANSAS

CITY           SKY/WX    TMP DP  RH WIND       PRES   REMARKS
PINE BLUFF     SUNNY     85  55  35 SW14      29.94F
STUTTGART      SUNNY     90  54  29 SW17      29.92F HX  87
MONTICELLO     SUNNY     84  52  33 SW10      29.96F

$$






USA.gov is the U.S. government's official web portal to all federal, state and local government web resources and services.